GW0919 Weather Reports


time (UTC)temp
C
wind
direction
speed
KPH
gust
KPH
rain 1hr
cm
rain 24hr
cm
rain mn
cm
humidity
%
barometer
mb
20260505041535 12 224 0.0 3.2 0.15 0.69 0.48 98 1007.9
20260505040039 12 132 0.0 3.2 0.20 0.66 0.46 98 1007.9
20260505034535 12 0 0.0 8.0 0.20 0.74 0.46 98 1007.9
20260505033046 12 0 0.0 4.8 0.15 0.64 0.36 98 1008.0
20260505031536 12 0 0.0 3.2 0.10 0.61 0.33 98 1008.2
20260505030036 12 0 0.0 1.6 0.03 0.53 0.25 98 1008.3
20260505024557 12 0 0.0 1.6 0.00 0.58 0.23 97 1008.4
20260505023038 12 0 0.0 1.6 0.00 0.56 0.20 97 1008.5
20260505021547 12 0 0.0 1.6 0.03 0.56 0.20 97 1008.6
20260505020044 12 0 0.0 1.6 0.08 0.56 0.20 97 1008.8
20260505014535 12 0 0.0 0.0 0.10 0.74 0.20 97 1008.6
20260505013035 12 0 0.0 1.6 0.10 0.74 0.18 97 1008.8
20260505011547 12 0 0.0 0.0 0.10 0.71 0.18 97 1009.0
20260505010039 12 0 0.0 1.6 0.08 0.66 0.13 96 1009.2
20260505004542 12 0 0.0 4.8 0.08 0.64 0.08 96 1009.4
20260505003035 12 218 1.6 6.4 0.08 0.64 0.08 96 1009.4
20260505001535 12 0 0.0 3.2 0.03 0.58 0.03 96 1009.6
20260505000035 12 0 0.0 3.2 0.03 0.58 0.03 95 1009.5
20260504234538 12 0 0.0 4.8 0.00 0.71 0.00 95 1009.7
20260504233048 12 0 1.6 4.8 0.00 0.69 0.00 95 1009.8
20260504231535 13 143 0.0 4.8 0.00 0.69 0.00 95 1009.8
20260504230035 13 143 0.0 1.6 0.00 0.69 0.00 94 1009.9
20260504224534 12 111 0.0 3.2 0.00 1.12 0.00 93 1009.7
20260504223040 12 0 0.0 3.2 0.00 1.12 0.00 93 1009.8
20260504221540 12 0 0.0 1.6 0.00 1.12 0.00 93 1009.8
20260504220047 12 0 0.0 1.6 0.00 1.12 0.00 92 1009.9
20260504214536 13 115 0.0 1.6 0.00 1.17 1.12 92 1010.0
20260504213035 13 0 0.0 4.8 0.00 1.17 1.12 91 1010.0
20260504211531 13 45 1.6 11.3 0.00 1.17 1.12 91 1010.4
20260504210037 13 7 3.2 11.3 0.00 1.17 1.12 93 1010.4
20260504204551 15 0 1.6 4.8 0.00 1.17 1.12 93 1010.4
20260504203037 15 0 0.0 3.2 0.00 1.17 1.12 92 1010.4
20260504201535 15 336 1.6 4.8 0.00 1.17 1.12 91 1010.2
20260504200042 15 0 0.0 0.0 0.00 1.17 1.12 91 1010.2
20260504194541 15 0 0.0 1.6 0.00 1.22 1.12 90 1010.2
20260504193037 16 0 0.0 0.0 0.00 1.22 1.12 88 1009.8
20260504191539 16 0 0.0 1.6 0.00 1.22 1.12 85 1010.1
20260504190038 16 51 0.0 4.8 0.00 1.22 1.12 83 1009.7
20260504184537 16 50 0.0 3.2 0.00 1.24 1.12 86 1009.8
20260504183037 16 0 0.0 3.2 0.00 1.24 1.12 85 1009.8
20260504181542 17 103 0.0 1.6 0.00 1.24 1.12 84 1009.8
20260504180035 17 0 0.0 1.6 0.00 1.24 1.12 81 1009.9
20260504174535 17 0 0.0 3.2 0.00 1.24 1.12 78 1009.9
20260504173036 18 88 1.6 6.4 0.00 1.24 1.12 76 1009.9
20260504171535 18 0 0.0 1.6 0.00 1.24 1.12 79 1009.9
20260504081546 12 0 0.0 4.8 0.05 1.27 1.09 95 1012.8